Miscellaneous Local Product
Issued by NWS Hastings, NE

Home | Current Version | Previous Version | Text Only | Print | Product List | Glossary On
Versions: 1 2 3 4 5 6 7 8 9 10 11 12 13 14 15 16 17 18 19 20 21 22 23 24 25 26 27 28 29 30 31 32 33 34 35 36 37 38 39 40 41 42 43 44 45 46 47 48 49 50
000
AXUS43 KGID 171302
MISGRI

GID CWA HOURLY WEATHER ROUNDUP
NATIONAL WEATHER SERVICE HASTINGS NE
800 AM CDT TUE OCT 17 2017

NOTE: "FAIR" INDICATES FEW OR NO CLOUDS BELOW 12,000 FEET WITH NO
SIGNIFICANT WEATHER AND/OR OBSTRUCTIONS TO VISIBILITY.

...SOUTH CENTRAL NEBRASKA...

CITY           SKY/WX    TMP DP  RH WIND       PRES   REMARKS
GRAND ISLAND   CLEAR     39  37  92 W5        30.09S
HASTINGS       CLEAR     40  35  83 SW3       30.10S
KEARNEY        CLEAR     40  35  83 NW7       30.10S
ORD            CLEAR     35  32  88 NW6       30.09S WCI  30
YORK           CLEAR     39  39 100 CALM      30.09S
AURORA         CLEAR     40  37  87 SW5       30.09R
LEXINGTON      CLEAR     39  34  82 NW8       30.13S WCI  34
HOLDREGE       CLEAR     41  36  82 NW8       30.10S
HEBRON         CLEAR     46  39  78 CALM      30.11S

...NEBRASKA PANHANDLE...

CITY           SKY/WX    TMP DP  RH WIND       PRES   REMARKS
CHADRON        CLOUDY    33  23  66 W3        30.12S
ALLIANCE       CLOUDY    27  21  78 W9        30.14F WCI  18
SCOTTSBLUFF    CLEAR     29  23  78 NW3       30.17S
SIDNEY         CLOUDY    35  21  56 W8        30.19S WCI  29

...WESTERN AND NORTH CENTRAL NEBRASKA...

CITY           SKY/WX    TMP DP  RH WIND       PRES   REMARKS
VALENTINE      CLEAR     37  30  75 SW5       30.09F WCI  33
AINSWORTH      CLEAR     42  33  72 W6        30.10S
ONEILL         CLEAR     45  38  78 CALM      30.08S
BROKEN BOW     CLEAR     37  33  85 NE5       30.11S WCI  33
IMPERIAL       CLOUDY    36  28  73 W6        30.18S WCI  31
NORTH PLATTE   CLEAR     33  31  92 NW5       30.15S WCI  29
MCCOOK         CLEAR     35  32  88 SW8       30.15S WCI  29

...EASTERN NEBRASKA...

CITY           SKY/WX    TMP DP  RH WIND       PRES   REMARKS
NORFOLK        PTCLDY    37  36  96 CALM      30.05F
SO SIOUX CITY  CLEAR     38  37  97 SE7       30.07S WCI  33
TEKAMAH        CLEAR     42  39  89 SE6       30.08F
COLUMBUS       CLEAR     43  39  86 SW3       30.09S
ALBION         CLEAR     37  35  92 NW3       30.08S
OMAHA EPPLEY   PTCLDY    47  40  76 S9        30.11S
MILLARD        CLEAR     46  42  84 CALM      30.11S
LINCOLN        CLEAR     44  39  82 S7        30.11F
NEBRASKA CITY  CLEAR     43  42  95 S6        30.13F
BEATRICE       CLEAR     47  41  80 S6        30.12S
FALLS CITY     CLEAR     48  40  73 S8        30.14S

...NORTHERN KANSAS...

CITY           SKY/WX    TMP DP  RH WIND       PRES   REMARKS
GOODLAND       CLOUDY    36  29  75 W8        30.17S WCI  30
HILL CITY      CLEAR     42  35  76 W6        30.12S
NORTON         SUNNY     39  28  65 W6        30.12S WCI  35
PHILLIPSBURG   CLEAR     36  36 100 W5        30.11S WCI  32
SMITH CENTER   CLEAR     37  34  87 S5        30.11S WCI  34
HAYS           CLEAR     39  35  86 W3        30.13R
RUSSELL        CLEAR     42  38  85 S12       30.11R
CONCORDIA      CLEAR     47  40  76 S9        30.11F
SALINA         CLEAR     49  42  77 S7        30.14S
TOPEKA         CLEAR     48  41  76 SE3       30.19S



USA.gov is the U.S. government's official web portal to all federal, state and local government web resources and services.